owner,sensor,date,latitude,longitude,vertical_datum,mass_concentration_of_oxygen_in_sea_water,qcFlag 
LUMCON,ioos:station:LUMCON:101:1,2017-02-01T00:00:00Z,29.2533,-90.6633,89.3,8.45,1111122 
LUMCON,ioos:station:LUMCON:101:1,2017-02-01T00:15:00Z,29.2533,-90.6633,88.0,8.35,1111122 
LUMCON,ioos:station:LUMCON:101:1,2017-02-01T00:30:00Z,29.2533,-90.6633,89.2,8.45,1111122 
LUMCON,ioos:station:LUMCON:101:1,2017-02-01T00:45:00Z,29.2533,-90.6633,91.4,8.66,1111122 
LUMCON,ioos:station:LUMCON:101:1,2017-02-01T01:00:00Z,29.2533,-90.6633,92.9,8.8,1111122 
LUMCON,ioos:station:LUMCON:101:1,2017-02-01T01:15:00Z,29.2533,-90.6633,93.1,8.82,1111122 
LUMCON,ioos:station:LUMCON:101:1,2017-02-01T01:30:00Z,29.2533,-90.6633,93.5,8.87,1111122 
LUMCON,ioos:station:LUMCON:101:1,2017-02-01T01:45:00Z,29.2533,-90.6633,92.5,8.77,1111122 
LUMCON,ioos:station:LUMCON:101:1,2017-02-01T02:00:00Z,29.2533,-90.6633,91.6,8.7,1111122 
LUMCON,ioos:station:LUMCON:101:1,2017-02-01T02:15:00Z,29.2533,-90.6633,90.8,8.63,1111122 
LUMCON,ioos:station:LUMCON:101:1,2017-02-01T02:30:00Z,29.2533,-90.6633,84.4,8.0,1111122 
LUMCON,ioos:station:LUMCON:101:1,2017-02-01T02:45:00Z,29.2533,-90.6633,81.6,7.77,1111122 
LUMCON,ioos:station:LUMCON:101:1,2017-02-01T03:00:00Z,29.2533,-90.6633,75.54,7.18,1111122 
LUMCON,ioos:station:LUMCON:101:1,2017-02-01T03:15:00Z,29.2533,-90.6633,79.35,7.53,1111122 
LUMCON,ioos:station:LUMCON:101:1,2017-02-01T03:30:00Z,29.2533,-90.6633,77.14,7.32,1111122 
LUMCON,ioos:station:LUMCON:101:1,2017-02-01T03:45:00Z,29.2533,-90.6633,75.41,7.14,1111122 
LUMCON,ioos:station:LUMCON:101:1,2017-02-01T04:00:00Z,29.2533,-90.6633,70.74,6.69,1111122 
LUMCON,ioos:station:LUMCON:101:1,2017-02-01T04:15:00Z,29.2533,-90.6633,68.81,6.49,1111122 
LUMCON,ioos:station:LUMCON:101:1,2017-02-01T04:30:00Z,29.2533,-90.6633,63.84,6.02,1111122 
LUMCON,ioos:station:LUMCON:101:1,2017-02-01T04:45:00Z,29.2533,-90.6633,61.93,5.83,1111122 
LUMCON,ioos:station:LUMCON:101:1,2017-02-01T05:00:00Z,29.2533,-90.6633,66.5,6.26,1111122 
LUMCON,ioos:station:LUMCON:101:1,2017-02-01T05:15:00Z,29.2533,-90.6633,68.32,6.44,1111122 
LUMCON,ioos:station:LUMCON:101:1,2017-02-01T05:30:00Z,29.2533,-90.6633,68.58,6.47,1111122 
LUMCON,ioos:station:LUMCON:101:1,2017-02-01T05:45:00Z,29.2533,-90.6633,66.31,6.25,1111122 
LUMCON,ioos:station:LUMCON:101:1,2017-02-01T06:00:00Z,29.2533,-90.6633,54.28,5.1,1111122 
LUMCON,ioos:station:LUMCON:101:1,2017-02-01T06:15:00Z,29.2533,-90.6633,62.19,5.84,1111122 
LUMCON,ioos:station:LUMCON:101:1,2017-02-01T06:30:00Z,29.2533,-90.6633,63.97,5.98,1111122 
LUMCON,ioos:station:LUMCON:101:1,2017-02-01T06:45:00Z,29.2533,-90.6633,64.49,6.02,1111122 
LUMCON,ioos:station:LUMCON:101:1,2017-02-01T07:00:00Z,29.2533,-90.6633,60.2,5.62,1111122 
LUMCON,ioos:station:LUMCON:101:1,2017-02-01T07:15:00Z,29.2533,-90.6633,56.31,5.25,1111122 
LUMCON,ioos:station:LUMCON:101:1,2017-02-01T07:30:00Z,29.2533,-90.6633,52.37,4.88,1111122 
LUMCON,ioos:station:LUMCON:101:1,2017-02-01T07:45:00Z,29.2533,-90.6633,52.29,4.87,1111122 
LUMCON,ioos:station:LUMCON:101:1,2017-02-01T08:00:00Z,29.2533,-90.6633,48.29,4.5,1111122 
LUMCON,ioos:station:LUMCON:101:1,2017-02-01T08:15:00Z,29.2533,-90.6633,55.2,5.15,1111122 
LUMCON,ioos:station:LUMCON:101:1,2017-02-01T08:30:00Z,29.2533,-90.6633,62.04,5.8,1111122 
LUMCON,ioos:station:LUMCON:101:1,2017-02-01T08:45:00Z,29.2533,-90.6633,65.37,6.17,1111122 
LUMCON,ioos:station:LUMCON:101:1,2017-02-01T09:00:00Z,29.2533,-90.6633,66.31,6.29,1111122 
LUMCON,ioos:station:LUMCON:101:1,2017-02-01T09:15:00Z,29.2533,-90.6633,71.79,6.84,1111122 
LUMCON,ioos:station:LUMCON:101:1,2017-02-01T09:30:00Z,29.2533,-90.6633,75.73,7.2,1111122 
LUMCON,ioos:station:LUMCON:101:1,2017-02-01T09:45:00Z,29.2533,-90.6633,77.37,7.37,1111122 
LUMCON,ioos:station:LUMCON:101:1,2017-02-01T10:00:00Z,29.2533,-90.6633,78.56,7.49,1111122 
LUMCON,ioos:station:LUMCON:101:1,2017-02-01T10:15:00Z,29.2533,-90.6633,77.24,7.39,1111122 
LUMCON,ioos:station:LUMCON:101:1,2017-02-01T10:30:00Z,29.2533,-90.6633,76.5,7.34,1111122 
LUMCON,ioos:station:LUMCON:101:1,2017-02-01T10:45:00Z,29.2533,-90.6633,75.56,7.27,1111122 
LUMCON,ioos:station:LUMCON:101:1,2017-02-01T11:00:00Z,29.2533,-90.6633,76.33,7.35,1111122 
LUMCON,ioos:station:LUMCON:101:1,2017-02-01T11:15:00Z,29.2533,-90.6633,76.71,7.4,1111122 
LUMCON,ioos:station:LUMCON:101:1,2017-02-01T11:30:00Z,29.2533,-90.6633,77.57,7.49,1111122 
LUMCON,ioos:station:LUMCON:101:1,2017-02-01T11:45:00Z,29.2533,-90.6633,78.02,7.54,1111122 
LUMCON,ioos:station:LUMCON:101:1,2017-02-01T12:00:00Z,29.2533,-90.6633,78.32,7.58,1111122 
LUMCON,ioos:station:LUMCON:101:1,2017-02-01T12:15:00Z,29.2533,-90.6633,77.54,7.51,1111122 
LUMCON,ioos:station:LUMCON:101:1,2017-02-01T12:30:00Z,29.2533,-90.6633,78.11,7.57,1111122 
LUMCON,ioos:station:LUMCON:101:1,2017-02-01T12:45:00Z,29.2533,-90.6633,78.53,7.62,1111122 
LUMCON,ioos:station:LUMCON:101:1,2017-02-01T13:00:00Z,29.2533,-90.6633,78.39,7.61,1111122 
LUMCON,ioos:station:LUMCON:101:1,2017-02-01T13:15:00Z,29.2533,-90.6633,78.49,7.61,1111122 
LUMCON,ioos:station:LUMCON:101:1,2017-02-01T13:30:00Z,29.2533,-90.6633,78.63,7.62,1111122 
LUMCON,ioos:station:LUMCON:101:1,2017-02-01T13:45:00Z,29.2533,-90.6633,79.18,7.67,1111122 
LUMCON,ioos:station:LUMCON:101:1,2017-02-01T14:00:00Z,29.2533,-90.6633,79.56,7.69,1111122 
LUMCON,ioos:station:LUMCON:101:1,2017-02-01T14:15:00Z,29.2533,-90.6633,79.4,7.66,1111122 
LUMCON,ioos:station:LUMCON:101:1,2017-02-01T14:30:00Z,29.2533,-90.6633,78.83,7.59,1111122 
LUMCON,ioos:station:LUMCON:101:1,2017-02-01T14:45:00Z,29.2533,-90.6633,78.67,7.56,1111122 
LUMCON,ioos:station:LUMCON:101:1,2017-02-01T15:00:00Z,29.2533,-90.6633,78.3,7.5,1111122 
LUMCON,ioos:station:LUMCON:101:1,2017-02-01T15:15:00Z,29.2533,-90.6633,78.39,7.49,1111122 
LUMCON,ioos:station:LUMCON:101:1,2017-02-01T15:30:00Z,29.2533,-90.6633,78.98,7.53,1111122 
LUMCON,ioos:station:LUMCON:101:1,2017-02-01T15:45:00Z,29.2533,-90.6633,77.79,7.4,1111122 
LUMCON,ioos:station:LUMCON:101:1,2017-02-01T16:00:00Z,29.2533,-90.6633,68.84,6.55,1111122 
LUMCON,ioos:station:LUMCON:101:1,2017-02-01T16:15:00Z,29.2533,-90.6633,73.61,6.99,1111122 
LUMCON,ioos:station:LUMCON:101:1,2017-02-01T16:30:00Z,29.2533,-90.6633,72.26,6.85,1111122 
LUMCON,ioos:station:LUMCON:101:1,2017-02-01T16:45:00Z,29.2533,-90.6633,73.78,6.98,1111122 
LUMCON,ioos:station:LUMCON:101:1,2017-02-01T17:00:00Z,29.2533,-90.6633,72.79,6.88,1111122 
LUMCON,ioos:station:LUMCON:101:1,2017-02-01T17:15:00Z,29.2533,-90.6633,70.55,6.68,1111122 
LUMCON,ioos:station:LUMCON:101:1,2017-02-01T17:30:00Z,29.2533,-90.6633,70.7,6.67,1111122 
LUMCON,ioos:station:LUMCON:101:1,2017-02-01T17:45:00Z,29.2533,-90.6633,73.03,6.87,1111122 
LUMCON,ioos:station:LUMCON:101:1,2017-02-01T18:00:00Z,29.2533,-90.6633,68.56,6.46,1111122 
LUMCON,ioos:station:LUMCON:101:1,2017-02-01T18:15:00Z,29.2533,-90.6633,67.15,6.33,1111122 
LUMCON,ioos:station:LUMCON:101:1,2017-02-01T18:30:00Z,29.2533,-90.6633,73.21,6.89,1111122 
LUMCON,ioos:station:LUMCON:101:1,2017-02-01T18:45:00Z,29.2533,-90.6633,72.03,6.74,1111122 
LUMCON,ioos:station:LUMCON:101:1,2017-02-01T19:00:00Z,29.2533,-90.6633,84.1,7.84,1111122 
LUMCON,ioos:station:LUMCON:101:1,2017-02-01T19:15:00Z,29.2533,-90.6633,88.4,8.22,1111122 
LUMCON,ioos:station:LUMCON:101:1,2017-02-01T19:30:00Z,29.2533,-90.6633,88.3,8.21,1111122 
LUMCON,ioos:station:LUMCON:101:1,2017-02-01T19:45:00Z,29.2533,-90.6633,94.0,8.73,1111122 
LUMCON,ioos:station:LUMCON:101:1,2017-02-01T20:00:00Z,29.2533,-90.6633,93.6,8.67,1111122 
LUMCON,ioos:station:LUMCON:101:1,2017-02-01T20:15:00Z,29.2533,-90.6633,95.6,8.86,1111122 
LUMCON,ioos:station:LUMCON:101:1,2017-02-01T20:30:00Z,29.2533,-90.6633,96.0,8.89,1111122 
LUMCON,ioos:station:LUMCON:101:1,2017-02-01T20:45:00Z,29.2533,-90.6633,98.5,9.09,1111122 
LUMCON,ioos:station:LUMCON:101:1,2017-02-01T21:00:00Z,29.2533,-90.6633,95.0,8.77,1111122 
LUMCON,ioos:station:LUMCON:101:1,2017-02-01T21:15:00Z,29.2533,-90.6633,97.8,8.99,1111122 
LUMCON,ioos:station:LUMCON:101:1,2017-02-01T21:30:00Z,29.2533,-90.6633,97.2,8.92,1111122 
LUMCON,ioos:station:LUMCON:101:1,2017-02-01T21:45:00Z,29.2533,-90.6633,97.9,8.97,1111122 
LUMCON,ioos:station:LUMCON:101:1,2017-02-01T22:00:00Z,29.2533,-90.6633,99.0,9.04,1111122 
LUMCON,ioos:station:LUMCON:101:1,2017-02-01T22:15:00Z,29.2533,-90.6633,97.2,8.88,1111122 
LUMCON,ioos:station:LUMCON:101:1,2017-02-01T22:30:00Z,29.2533,-90.6633,96.4,8.82,1111122 
LUMCON,ioos:station:LUMCON:101:1,2017-02-01T22:45:00Z,29.2533,-90.6633,93.2,8.54,1111122 
LUMCON,ioos:station:LUMCON:101:1,2017-02-01T23:00:00Z,29.2533,-90.6633,95.0,8.68,1111122 
LUMCON,ioos:station:LUMCON:101:1,2017-02-01T23:15:00Z,29.2533,-90.6633,91.9,8.39,1111122 
LUMCON,ioos:station:LUMCON:101:1,2017-02-01T23:30:00Z,29.2533,-90.6633,93.0,8.5,1111122 
LUMCON,ioos:station:LUMCON:101:1,2017-02-01T23:45:00Z,29.2533,-90.6633,86.9,7.91,1111122 
LUMCON,ioos:station:LUMCON:101:1,2017-02-02T00:00:00Z,29.2533,-90.6633,93.2,8.48,1111122 
LUMCON,ioos:station:LUMCON:101:1,2017-02-02T00:15:00Z,29.2533,-90.6633,96.0,8.73,1111122 
LUMCON,ioos:station:LUMCON:101:1,2017-02-02T00:30:00Z,29.2533,-90.6633,98.2,8.94,1111122 
LUMCON,ioos:station:LUMCON:101:1,2017-02-02T00:45:00Z,29.2533,-90.6633,98.4,8.94,1111122 
LUMCON,ioos:station:LUMCON:101:1,2017-02-02T01:00:00Z,29.2533,-90.6633,98.8,8.98,1111122 
LUMCON,ioos:station:LUMCON:101:1,2017-02-02T01:15:00Z,29.2533,-90.6633,96.0,8.73,1111122 
LUMCON,ioos:station:LUMCON:101:1,2017-02-02T01:30:00Z,29.2533,-90.6633,92.5,8.42,1111122 
LUMCON,ioos:station:LUMCON:101:1,2017-02-02T01:45:00Z,29.2533,-90.6633,92.9,8.46,1111122 
LUMCON,ioos:station:LUMCON:101:1,2017-02-02T02:00:00Z,29.2533,-90.6633,94.4,8.6,1111122 
LUMCON,ioos:station:LUMCON:101:1,2017-02-02T02:15:00Z,29.2533,-90.6633,95.5,8.7,1111122 
LUMCON,ioos:station:LUMCON:101:1,2017-02-02T02:30:00Z,29.2533,-90.6633,96.1,8.76,1111122 
LUMCON,ioos:station:LUMCON:101:1,2017-02-02T02:45:00Z,29.2533,-90.6633,94.6,8.64,1111122 
LUMCON,ioos:station:LUMCON:101:1,2017-02-02T03:00:00Z,29.2533,-90.6633,92.5,8.48,1111122 
LUMCON,ioos:station:LUMCON:101:1,2017-02-02T03:15:00Z,29.2533,-90.6633,91.4,8.39,1111122 
LUMCON,ioos:station:LUMCON:101:1,2017-02-02T03:30:00Z,29.2533,-90.6633,90.3,8.3,1111122 
LUMCON,ioos:station:LUMCON:101:1,2017-02-02T03:45:00Z,29.2533,-90.6633,89.3,8.22,1111122 
LUMCON,ioos:station:LUMCON:101:1,2017-02-02T04:00:00Z,29.2533,-90.6633,88.5,8.15,1111122 
LUMCON,ioos:station:LUMCON:101:1,2017-02-02T04:15:00Z,29.2533,-90.6633,87.9,8.11,1111122 
LUMCON,ioos:station:LUMCON:101:1,2017-02-02T04:30:00Z,29.2533,-90.6633,87.6,8.09,1111122 
LUMCON,ioos:station:LUMCON:101:1,2017-02-02T04:45:00Z,29.2533,-90.6633,87.0,8.04,1111122 
LUMCON,ioos:station:LUMCON:101:1,2017-02-02T05:00:00Z,29.2533,-90.6633,86.7,8.02,1111122 
LUMCON,ioos:station:LUMCON:101:1,2017-02-02T05:15:00Z,29.2533,-90.6633,86.0,7.96,1111122 
LUMCON,ioos:station:LUMCON:101:1,2017-02-02T05:30:00Z,29.2533,-90.6633,84.7,7.85,1111122 
LUMCON,ioos:station:LUMCON:101:1,2017-02-02T05:45:00Z,29.2533,-90.6633,83.5,7.73,1111122 
LUMCON,ioos:station:LUMCON:101:1,2017-02-02T06:00:00Z,29.2533,-90.6633,82.8,7.67,1111122 
LUMCON,ioos:station:LUMCON:101:1,2017-02-02T06:15:00Z,29.2533,-90.6633,81.7,7.57,1111122 
LUMCON,ioos:station:LUMCON:101:1,2017-02-02T06:30:00Z,29.2533,-90.6633,82.1,7.59,1111122 
LUMCON,ioos:station:LUMCON:101:1,2017-02-02T06:45:00Z,29.2533,-90.6633,81.2,7.51,1111122 
LUMCON,ioos:station:LUMCON:101:1,2017-02-02T07:00:00Z,29.2533,-90.6633,79.12,7.32,1111122 
LUMCON,ioos:station:LUMCON:101:1,2017-02-02T07:15:00Z,29.2533,-90.6633,79.09,7.31,1111122 
LUMCON,ioos:station:LUMCON:101:1,2017-02-02T07:30:00Z,29.2533,-90.6633,78.12,7.23,1111122 
LUMCON,ioos:station:LUMCON:101:1,2017-02-02T07:45:00Z,29.2533,-90.6633,76.82,7.11,1111122 
LUMCON,ioos:station:LUMCON:101:1,2017-02-02T08:00:00Z,29.2533,-90.6633,72.67,6.73,1111122 
LUMCON,ioos:station:LUMCON:101:1,2017-02-02T08:15:00Z,29.2533,-90.6633,72.03,6.64,1111122 
LUMCON,ioos:station:LUMCON:101:1,2017-02-02T08:30:00Z,29.2533,-90.6633,66.03,6.08,1111122 
LUMCON,ioos:station:LUMCON:101:1,2017-02-02T08:45:00Z,29.2533,-90.6633,68.87,6.34,1111122 
LUMCON,ioos:station:LUMCON:101:1,2017-02-02T09:00:00Z,29.2533,-90.6633,74.63,6.87,1111122 
LUMCON,ioos:station:LUMCON:101:1,2017-02-02T09:15:00Z,29.2533,-90.6633,72.81,6.68,1111122 
LUMCON,ioos:station:LUMCON:101:1,2017-02-02T09:30:00Z,29.2533,-90.6633,77.49,7.12,1111122 
LUMCON,ioos:station:LUMCON:101:1,2017-02-02T09:45:00Z,29.2533,-90.6633,77.18,7.09,1111122 
LUMCON,ioos:station:LUMCON:101:1,2017-02-02T10:00:00Z,29.2533,-90.6633,75.5,6.94,1111122 
LUMCON,ioos:station:LUMCON:101:1,2017-02-02T10:15:00Z,29.2533,-90.6633,75.02,6.9,1111122 
LUMCON,ioos:station:LUMCON:101:1,2017-02-02T10:30:00Z,29.2533,-90.6633,82.2,7.56,1111122 
LUMCON,ioos:station:LUMCON:101:1,2017-02-02T10:45:00Z,29.2533,-90.6633,83.6,7.69,1111122 
LUMCON,ioos:station:LUMCON:101:1,2017-02-02T11:00:00Z,29.2533,-90.6633,81.3,7.49,1111122 
LUMCON,ioos:station:LUMCON:101:1,2017-02-02T11:15:00Z,29.2533,-90.6633,81.8,7.53,1111122 
LUMCON,ioos:station:LUMCON:101:1,2017-02-02T11:30:00Z,29.2533,-90.6633,76.43,7.06,1111122 
LUMCON,ioos:station:LUMCON:101:1,2017-02-02T11:45:00Z,29.2533,-90.6633,74.19,6.86,1111122 
LUMCON,ioos:station:LUMCON:101:1,2017-02-02T12:00:00Z,29.2533,-90.6633,71.54,6.62,1111122 
LUMCON,ioos:station:LUMCON:101:1,2017-02-02T12:15:00Z,29.2533,-90.6633,70.11,6.49,1111122 
LUMCON,ioos:station:LUMCON:101:1,2017-02-02T12:30:00Z,29.2533,-90.6633,63.87,5.9,1111122 
LUMCON,ioos:station:LUMCON:101:1,2017-02-02T12:45:00Z,29.2533,-90.6633,66.77,6.16,1111122 
LUMCON,ioos:station:LUMCON:101:1,2017-02-02T13:00:00Z,29.2533,-90.6633,70.28,6.49,1111122 
LUMCON,ioos:station:LUMCON:101:1,2017-02-02T13:15:00Z,29.2533,-90.6633,73.37,6.78,1111122 
LUMCON,ioos:station:LUMCON:101:1,2017-02-02T13:30:00Z,29.2533,-90.6633,74.02,6.86,1111122 
LUMCON,ioos:station:LUMCON:101:1,2017-02-02T13:45:00Z,29.2533,-90.6633,72.62,6.73,1111122 
LUMCON,ioos:station:LUMCON:101:1,2017-02-02T14:00:00Z,29.2533,-90.6633,71.93,6.65,1111122 
LUMCON,ioos:station:LUMCON:101:1,2017-02-02T14:15:00Z,29.2533,-90.6633,70.74,6.54,1111122 
LUMCON,ioos:station:LUMCON:101:1,2017-02-02T14:30:00Z,29.2533,-90.6633,71.65,6.62,1111122 
LUMCON,ioos:station:LUMCON:101:1,2017-02-02T14:45:00Z,29.2533,-90.6633,72.05,6.65,1111122 
LUMCON,ioos:station:LUMCON:101:1,2017-02-02T15:00:00Z,29.2533,-90.6633,71.63,6.61,1111122 
LUMCON,ioos:station:LUMCON:101:1,2017-02-02T15:15:00Z,29.2533,-90.6633,72.32,6.66,1111122 
LUMCON,ioos:station:LUMCON:101:1,2017-02-02T15:30:00Z,29.2533,-90.6633,72.37,6.65,1111122 
LUMCON,ioos:station:LUMCON:101:1,2017-02-02T15:45:00Z,29.2533,-90.6633,73.85,6.77,1111122 
LUMCON,ioos:station:LUMCON:101:1,2017-02-02T16:00:00Z,29.2533,-90.6633,74.8,6.84,1111122 
LUMCON,ioos:station:LUMCON:101:1,2017-02-02T16:15:00Z,29.2533,-90.6633,75.3,6.88,1111122 
LUMCON,ioos:station:LUMCON:101:1,2017-02-02T16:30:00Z,29.2533,-90.6633,75.82,6.91,1111122 
LUMCON,ioos:station:LUMCON:101:1,2017-02-02T16:45:00Z,29.2533,-90.6633,74.94,6.82,1111122 
LUMCON,ioos:station:LUMCON:101:1,2017-02-02T17:00:00Z,29.2533,-90.6633,72.91,6.63,1111122 
LUMCON,ioos:station:LUMCON:101:1,2017-02-02T17:15:00Z,29.2533,-90.6633,71.08,6.47,1111122 
LUMCON,ioos:station:LUMCON:101:1,2017-02-02T17:30:00Z,29.2533,-90.6633,73.77,6.73,1111122 
LUMCON,ioos:station:LUMCON:101:1,2017-02-02T17:45:00Z,29.2533,-90.6633,69.25,6.32,1111122 
LUMCON,ioos:station:LUMCON:101:1,2017-02-02T18:00:00Z,29.2533,-90.6633,70.76,6.44,1111122 
LUMCON,ioos:station:LUMCON:101:1,2017-02-02T18:15:00Z,29.2533,-90.6633,67.06,6.11,1111122 
LUMCON,ioos:station:LUMCON:101:1,2017-02-02T18:30:00Z,29.2533,-90.6633,69.68,6.35,1111122 
LUMCON,ioos:station:LUMCON:101:1,2017-02-02T18:45:00Z,29.2533,-90.6633,72.44,6.57,1111122 
LUMCON,ioos:station:LUMCON:101:1,2017-02-02T19:00:00Z,29.2533,-90.6633,69.69,6.32,1111122 
LUMCON,ioos:station:LUMCON:101:1,2017-02-02T19:15:00Z,29.2533,-90.6633,71.67,6.51,1111122 
LUMCON,ioos:station:LUMCON:101:1,2017-02-02T19:30:00Z,29.2533,-90.6633,71.53,6.49,1111122 
LUMCON,ioos:station:LUMCON:101:1,2017-02-02T19:45:00Z,29.2533,-90.6633,76.72,6.97,1111122 
LUMCON,ioos:station:LUMCON:101:1,2017-02-02T20:00:00Z,29.2533,-90.6633,80.5,7.32,1111122 
LUMCON,ioos:station:LUMCON:101:1,2017-02-02T20:15:00Z,29.2533,-90.6633,80.6,7.32,1111122 
LUMCON,ioos:station:LUMCON:101:1,2017-02-02T20:30:00Z,29.2533,-90.6633,80.8,7.34,1111122 
LUMCON,ioos:station:LUMCON:101:1,2017-02-02T20:45:00Z,29.2533,-90.6633,79.6,7.22,1111122 
LUMCON,ioos:station:LUMCON:101:1,2017-02-02T21:00:00Z,29.2533,-90.6633,81.1,7.35,1111122 
LUMCON,ioos:station:LUMCON:101:1,2017-02-02T21:15:00Z,29.2533,-90.6633,79.81,7.22,1111122 
LUMCON,ioos:station:LUMCON:101:1,2017-02-02T21:30:00Z,29.2533,-90.6633,80.6,7.3,1111122 
LUMCON,ioos:station:LUMCON:101:1,2017-02-02T21:45:00Z,29.2533,-90.6633,89.2,8.04,1111122 
LUMCON,ioos:station:LUMCON:101:1,2017-02-02T22:00:00Z,29.2533,-90.6633,84.0,7.6,1111122 
LUMCON,ioos:station:LUMCON:101:1,2017-02-02T22:15:00Z,29.2533,-90.6633,81.4,7.34,1111122 
LUMCON,ioos:station:LUMCON:101:1,2017-02-02T22:30:00Z,29.2533,-90.6633,82.9,7.47,1111122 
LUMCON,ioos:station:LUMCON:101:1,2017-02-02T22:45:00Z,29.2533,-90.6633,86.1,7.73,1111122 
LUMCON,ioos:station:LUMCON:101:1,2017-02-02T23:00:00Z,29.2533,-90.6633,84.9,7.62,1111122 
LUMCON,ioos:station:LUMCON:101:1,2017-02-02T23:15:00Z,29.2533,-90.6633,84.1,7.56,1111122 
LUMCON,ioos:station:LUMCON:101:1,2017-02-02T23:30:00Z,29.2533,-90.6633,87.8,7.9,1111122 
LUMCON,ioos:station:LUMCON:101:1,2017-02-02T23:45:00Z,29.2533,-90.6633,95.9,8.55,1111122 
LUMCON,ioos:station:LUMCON:101:1,2017-02-03T00:00:00Z,29.2533,-90.6633,97.3,8.65,1111122 
LUMCON,ioos:station:LUMCON:101:1,2017-02-03T00:15:00Z,29.2533,-90.6633,93.8,8.36,1111122 
LUMCON,ioos:station:LUMCON:101:1,2017-02-03T00:30:00Z,29.2533,-90.6633,95.8,8.53,1111122 
LUMCON,ioos:station:LUMCON:101:1,2017-02-03T00:45:00Z,29.2533,-90.6633,93.3,8.3,1111122 
LUMCON,ioos:station:LUMCON:101:1,2017-02-03T01:00:00Z,29.2533,-90.6633,92.5,8.23,1111122 
LUMCON,ioos:station:LUMCON:101:1,2017-02-03T01:15:00Z,29.2533,-90.6633,96.9,8.59,1111122 
LUMCON,ioos:station:LUMCON:101:1,2017-02-03T01:30:00Z,29.2533,-90.6633,93.5,8.3,1111122 
LUMCON,ioos:station:LUMCON:101:1,2017-02-03T01:45:00Z,29.2533,-90.6633,93.3,8.29,1111122 
LUMCON,ioos:station:LUMCON:101:1,2017-02-03T02:00:00Z,29.2533,-90.6633,89.8,8.0,1111122 
LUMCON,ioos:station:LUMCON:101:1,2017-02-03T02:15:00Z,29.2533,-90.6633,88.1,7.86,1111122 
LUMCON,ioos:station:LUMCON:101:1,2017-02-03T02:30:00Z,29.2533,-90.6633,90.2,8.06,1111122 
LUMCON,ioos:station:LUMCON:101:1,2017-02-03T02:45:00Z,29.2533,-90.6633,88.9,7.94,1111122 
LUMCON,ioos:station:LUMCON:101:1,2017-02-03T03:00:00Z,29.2533,-90.6633,88.6,7.91,1111122 
LUMCON,ioos:station:LUMCON:101:1,2017-02-03T03:15:00Z,29.2533,-90.6633,87.3,7.79,1111122 
LUMCON,ioos:station:LUMCON:101:1,2017-02-03T03:30:00Z,29.2533,-90.6633,85.7,7.64,1111122 
LUMCON,ioos:station:LUMCON:101:1,2017-02-03T03:45:00Z,29.2533,-90.6633,84.3,7.52,1111122 
LUMCON,ioos:station:LUMCON:101:1,2017-02-03T04:00:00Z,29.2533,-90.6633,82.3,7.33,1111122 
LUMCON,ioos:station:LUMCON:101:1,2017-02-03T04:15:00Z,29.2533,-90.6633,81.1,7.21,1111122 
LUMCON,ioos:station:LUMCON:101:1,2017-02-03T04:30:00Z,29.2533,-90.6633,79.21,7.04,1111122 
LUMCON,ioos:station:LUMCON:101:1,2017-02-03T04:45:00Z,29.2533,-90.6633,78.28,6.95,1111122 
LUMCON,ioos:station:LUMCON:101:1,2017-02-03T05:00:00Z,29.2533,-90.6633,77.71,6.89,1111122 
LUMCON,ioos:station:LUMCON:101:1,2017-02-03T05:15:00Z,29.2533,-90.6633,76.65,6.79,1111122 
LUMCON,ioos:station:LUMCON:101:1,2017-02-03T05:30:00Z,29.2533,-90.6633,76.18,6.74,1111122 
LUMCON,ioos:station:LUMCON:101:1,2017-02-03T05:45:00Z,29.2533,-90.6633,75.76,6.7,1111122 
LUMCON,ioos:station:LUMCON:101:1,2017-02-03T06:00:00Z,29.2533,-90.6633,74.6,6.59,1111122 
LUMCON,ioos:station:LUMCON:101:1,2017-02-03T06:15:00Z,29.2533,-90.6633,75.16,6.64,1111122 
LUMCON,ioos:station:LUMCON:101:1,2017-02-03T06:30:00Z,29.2533,-90.6633,74.84,6.6,1111122 
LUMCON,ioos:station:LUMCON:101:1,2017-02-03T06:45:00Z,29.2533,-90.6633,75.53,6.65,1111122 
LUMCON,ioos:station:LUMCON:101:1,2017-02-03T07:00:00Z,29.2533,-90.6633,74.12,6.52,1111122 
LUMCON,ioos:station:LUMCON:101:1,2017-02-03T07:15:00Z,29.2533,-90.6633,74.89,6.58,1111122 
LUMCON,ioos:station:LUMCON:101:1,2017-02-03T07:30:00Z,29.2533,-90.6633,75.52,6.63,1111122 
LUMCON,ioos:station:LUMCON:101:1,2017-02-03T07:45:00Z,29.2533,-90.6633,75.67,6.64,1111122 
LUMCON,ioos:station:LUMCON:101:1,2017-02-03T08:00:00Z,29.2533,-90.6633,74.09,6.51,1111122 
LUMCON,ioos:station:LUMCON:101:1,2017-02-03T08:15:00Z,29.2533,-90.6633,74.05,6.5,1111122 
LUMCON,ioos:station:LUMCON:101:1,2017-02-03T08:30:00Z,29.2533,-90.6633,73.89,6.48,1111122 
LUMCON,ioos:station:LUMCON:101:1,2017-02-03T08:45:00Z,29.2533,-90.6633,71.41,6.26,1111122 
LUMCON,ioos:station:LUMCON:101:1,2017-02-03T09:00:00Z,29.2533,-90.6633,62.53,5.48,1111122 
LUMCON,ioos:station:LUMCON:101:1,2017-02-03T09:15:00Z,29.2533,-90.6633,66.31,5.82,1111122 
LUMCON,ioos:station:LUMCON:101:1,2017-02-03T09:30:00Z,29.2533,-90.6633,70.59,6.26,1111122 
LUMCON,ioos:station:LUMCON:101:1,2017-02-03T09:45:00Z,29.2533,-90.6633,73.11,6.5,1111122 
LUMCON,ioos:station:LUMCON:101:1,2017-02-03T10:00:00Z,29.2533,-90.6633,69.87,6.21,1111122 
LUMCON,ioos:station:LUMCON:101:1,2017-02-03T10:15:00Z,29.2533,-90.6633,67.71,6.01,1111122 
LUMCON,ioos:station:LUMCON:101:1,2017-02-03T10:30:00Z,29.2533,-90.6633,68.64,6.08,1111122 
LUMCON,ioos:station:LUMCON:101:1,2017-02-03T10:45:00Z,29.2533,-90.6633,68.4,6.08,1111122 
LUMCON,ioos:station:LUMCON:101:1,2017-02-03T11:00:00Z,29.2533,-90.6633,66.72,5.93,1111122 
LUMCON,ioos:station:LUMCON:101:1,2017-02-03T11:15:00Z,29.2533,-90.6633,65.8,5.85,1111122 
LUMCON,ioos:station:LUMCON:101:1,2017-02-03T11:30:00Z,29.2533,-90.6633,67.63,6.04,1111122 
LUMCON,ioos:station:LUMCON:101:1,2017-02-03T11:45:00Z,29.2533,-90.6633,74.08,6.65,1111122 
LUMCON,ioos:station:LUMCON:101:1,2017-02-03T12:00:00Z,29.2533,-90.6633,72.33,6.49,1111122 
LUMCON,ioos:station:LUMCON:101:1,2017-02-03T12:15:00Z,29.2533,-90.6633,72.84,6.56,1111122 
LUMCON,ioos:station:LUMCON:101:1,2017-02-03T12:30:00Z,29.2533,-90.6633,70.62,6.39,1111122 
LUMCON,ioos:station:LUMCON:101:1,2017-02-03T12:45:00Z,29.2533,-90.6633,70.77,6.44,1111122 
LUMCON,ioos:station:LUMCON:101:1,2017-02-03T13:00:00Z,29.2533,-90.6633,70.76,6.44,1111122 
LUMCON,ioos:station:LUMCON:101:1,2017-02-03T13:15:00Z,29.2533,-90.6633,72.39,6.6,1111122 
LUMCON,ioos:station:LUMCON:101:1,2017-02-03T13:30:00Z,29.2533,-90.6633,68.36,6.22,1111122 
LUMCON,ioos:station:LUMCON:101:1,2017-02-03T13:45:00Z,29.2533,-90.6633,75.5,6.87,1111122 
LUMCON,ioos:station:LUMCON:101:1,2017-02-03T14:00:00Z,29.2533,-90.6633,78.04,7.15,1111122 
LUMCON,ioos:station:LUMCON:101:1,2017-02-03T14:15:00Z,29.2533,-90.6633,76.78,7.03,1111122 
LUMCON,ioos:station:LUMCON:101:1,2017-02-03T14:30:00Z,29.2533,-90.6633,77.45,7.09,1111122 
LUMCON,ioos:station:LUMCON:101:1,2017-02-03T15:00:00Z,29.2533,-90.6633,76.45,6.96,1111122 
LUMCON,ioos:station:LUMCON:101:1,2017-02-03T15:15:00Z,29.2533,-90.6633,76.19,6.92,1111122 
LUMCON,ioos:station:LUMCON:101:1,2017-02-03T15:30:00Z,29.2533,-90.6633,75.45,6.83,1111122 
LUMCON,ioos:station:LUMCON:101:1,2017-02-03T15:45:00Z,29.2533,-90.6633,73.98,6.68,1111122 
LUMCON,ioos:station:LUMCON:101:1,2017-02-03T16:00:00Z,29.2533,-90.6633,73.74,6.63,1111122 
LUMCON,ioos:station:LUMCON:101:1,2017-02-03T16:15:00Z,29.2533,-90.6633,73.01,6.55,1111122 
LUMCON,ioos:station:LUMCON:101:1,2017-02-03T16:30:00Z,29.2533,-90.6633,72.89,6.52,1111122 
LUMCON,ioos:station:LUMCON:101:1,2017-02-03T16:45:00Z,29.2533,-90.6633,72.44,6.47,1111122 
LUMCON,ioos:station:LUMCON:101:1,2017-02-03T17:00:00Z,29.2533,-90.6633,73.27,6.52,1111122 
LUMCON,ioos:station:LUMCON:101:1,2017-02-03T17:15:00Z,29.2533,-90.6633,73.83,6.56,1111122 
LUMCON,ioos:station:LUMCON:101:1,2017-02-03T17:30:00Z,29.2533,-90.6633,73.82,6.54,1111122 
LUMCON,ioos:station:LUMCON:101:1,2017-02-03T17:45:00Z,29.2533,-90.6633,75.09,6.64,1111122 
LUMCON,ioos:station:LUMCON:101:1,2017-02-03T18:00:00Z,29.2533,-90.6633,76.74,6.77,1111122 